Find Starlink 34218

NORAD ID: 64338 Int'l Des: 2025-124 Owner: SPXS Country: US Constellation: starlink operational
LEOCIRCULAR

現在のビュー

3D地球を読み込み中...

Starlink 34218について

説明を読み込み中...

次回通過

Passes for default location (London). Set your location on the main map for personalized predictions.

高度履歴

Loading altitude history...

軌道要素

1 64338U 25124X 26148.99330419 .00029137 00000-0 10634-2 0 9995
2 64338 43.0014 24.5801 0001549 270.1312 89.9362 15.27603237 54106
Epoch: May 28, 2026 • Age: 27 hours

現在のステータス

高度 482.0 km
速度 7.63 km/s
衛星直下点 11.43°N, 104.27°E
打ち上げ日 Jun 10, 2025
運用期間 0.9 years
タイプ internet

技術仕様

分類 Payload
質量 575.00 kg
乾燥質量 530.00 kg
総質量 575.00 kg
長さ 0.30 m
直径 4.10 m
スパン 29.00 m
形状 Box + pan
製造者 SPXS
バスタイプ Starlink V2MO
フェーズステータス In Orbit
所有者/国 SPXS/US

Most Searched